Year,Month,Day,Hour,Minute,Value (Times are PST for temperature in C)
2017,05,26,00,00,13.60
2017,05,26,00,01,13.50
2017,05,26,00,02,13.50
2017,05,26,00,03,13.40
2017,05,26,00,04,13.30
2017,05,26,00,05,13.20
2017,05,26,00,06,13.20
2017,05,26,00,07,13.10
2017,05,26,00,08,13.00
2017,05,26,00,09,12.90
2017,05,26,00,10,12.80
2017,05,26,00,11,12.80
2017,05,26,00,12,12.70
2017,05,26,00,13,12.70
2017,05,26,00,14,12.60
2017,05,26,00,15,12.50
2017,05,26,00,16,12.50
2017,05,26,00,17,12.40
2017,05,26,00,18,12.40
2017,05,26,00,19,12.30
2017,05,26,00,20,12.30
2017,05,26,00,21,12.30
2017,05,26,00,22,12.20
2017,05,26,00,23,12.20
2017,05,26,00,24,12.20
2017,05,26,00,25,12.20
2017,05,26,00,26,12.20
2017,05,26,00,27,12.20
2017,05,26,00,28,12.20
2017,05,26,00,29,12.20
2017,05,26,00,30,12.30
2017,05,26,00,31,12.30
2017,05,26,00,32,12.30
2017,05,26,00,33,12.30
2017,05,26,00,34,12.30
2017,05,26,00,35,12.30
2017,05,26,00,36,12.30
2017,05,26,00,37,12.30
2017,05,26,00,38,12.40
2017,05,26,00,39,12.40
2017,05,26,00,40,12.50
2017,05,26,00,41,12.50
2017,05,26,00,42,12.50
2017,05,26,00,43,12.60
2017,05,26,00,44,12.60
2017,05,26,00,45,12.60
2017,05,26,00,46,12.60
2017,05,26,00,47,12.60
2017,05,26,00,48,12.70
2017,05,26,00,49,12.70
2017,05,26,00,50,12.70
2017,05,26,00,51,12.70
2017,05,26,00,52,12.80
2017,05,26,00,53,12.80
2017,05,26,00,54,12.80
2017,05,26,00,55,12.90
2017,05,26,00,56,12.90
2017,05,26,00,57,12.90
2017,05,26,00,58,12.90
2017,05,26,00,59,12.90
2017,05,26,01,00,12.90
2017,05,26,01,01,12.90
2017,05,26,01,02,12.90
2017,05,26,01,03,12.90
2017,05,26,01,04,12.90
2017,05,26,01,05,12.80
2017,05,26,01,06,12.80
2017,05,26,01,07,12.80
2017,05,26,01,08,12.80
2017,05,26,01,09,12.80
2017,05,26,01,10,12.70
2017,05,26,01,11,12.70
2017,05,26,01,12,12.70
2017,05,26,01,13,12.70
2017,05,26,01,14,12.60
2017,05,26,01,15,12.60
2017,05,26,01,16,12.60
2017,05,26,01,17,12.60
2017,05,26,01,18,12.70
2017,05,26,01,19,12.70
2017,05,26,01,20,12.70
2017,05,26,01,21,12.70
2017,05,26,01,22,12.70
2017,05,26,01,23,12.70
2017,05,26,01,24,12.60
2017,05,26,01,25,12.60
2017,05,26,01,26,12.60
2017,05,26,01,27,12.60
2017,05,26,01,28,12.60
2017,05,26,01,29,12.60
2017,05,26,01,30,12.60
2017,05,26,01,31,12.60
2017,05,26,01,32,12.60
2017,05,26,01,33,12.60
2017,05,26,01,34,12.50
2017,05,26,01,35,12.50
2017,05,26,01,36,12.40
2017,05,26,01,37,12.40
2017,05,26,01,38,12.40
2017,05,26,01,39,12.40
2017,05,26,01,40,12.30
2017,05,26,01,41,12.30
2017,05,26,01,42,12.30
2017,05,26,01,43,12.20
2017,05,26,01,44,12.20
2017,05,26,01,45,12.30
2017,05,26,01,46,12.30
2017,05,26,01,47,12.30
2017,05,26,01,48,12.30
2017,05,26,01,49,12.30
2017,05,26,01,50,12.30
2017,05,26,01,51,12.30
2017,05,26,01,52,12.30
2017,05,26,01,53,12.30
2017,05,26,01,54,12.30
2017,05,26,01,55,12.30
2017,05,26,01,56,12.30
2017,05,26,01,57,12.30
2017,05,26,01,58,12.20
2017,05,26,01,59,12.20
2017,05,26,02,00,12.20
2017,05,26,02,01,12.20
2017,05,26,02,02,12.10
2017,05,26,02,03,12.10
2017,05,26,02,04,12.00
2017,05,26,02,05,12.00
2017,05,26,02,06,11.90
2017,05,26,02,07,11.90
2017,05,26,02,08,11.80
2017,05,26,02,09,11.80
2017,05,26,02,10,11.70
2017,05,26,02,11,11.60
2017,05,26,02,12,11.60
2017,05,26,02,13,11.60
2017,05,26,02,14,11.50
2017,05,26,02,15,11.50
2017,05,26,02,16,11.40
2017,05,26,02,17,11.40
2017,05,26,02,18,11.40
2017,05,26,02,19,11.40
2017,05,26,02,20,11.40
2017,05,26,02,21,11.40
2017,05,26,02,22,11.40
2017,05,26,02,23,11.40
2017,05,26,02,24,11.40
2017,05,26,02,25,11.40
2017,05,26,02,26,11.40
2017,05,26,02,27,11.40
2017,05,26,02,28,11.30
2017,05,26,02,29,11.30
2017,05,26,02,30,11.30
2017,05,26,02,31,11.30
2017,05,26,02,32,11.20
2017,05,26,02,33,11.20
2017,05,26,02,34,11.20
2017,05,26,02,35,11.20
2017,05,26,02,36,11.20
2017,05,26,02,37,11.10
2017,05,26,02,38,11.10
2017,05,26,02,39,11.10
2017,05,26,02,40,11.10
2017,05,26,02,41,11.10
2017,05,26,02,42,11.10
2017,05,26,02,43,11.10
2017,05,26,02,44,11.10
2017,05,26,02,45,11.10
2017,05,26,02,46,11.10
2017,05,26,02,47,11.10
2017,05,26,02,48,11.10
2017,05,26,02,49,11.10
2017,05,26,02,50,11.10
2017,05,26,02,51,11.10
2017,05,26,02,52,11.10
2017,05,26,02,53,11.10
2017,05,26,02,54,11.10
2017,05,26,02,55,11.00
2017,05,26,02,56,11.00
2017,05,26,02,57,11.00
2017,05,26,02,58,11.00
2017,05,26,02,59,11.00
2017,05,26,03,00,11.00
2017,05,26,03,01,11.00
2017,05,26,03,02,11.00
2017,05,26,03,03,11.10
2017,05,26,03,04,11.10
2017,05,26,03,05,11.10
2017,05,26,03,06,11.10
2017,05,26,03,07,11.20
2017,05,26,03,08,11.20
2017,05,26,03,09,11.20
2017,05,26,03,10,11.30
2017,05,26,03,11,11.20
2017,05,26,03,12,11.20
2017,05,26,03,13,11.20
2017,05,26,03,14,11.20
2017,05,26,03,15,11.10
2017,05,26,03,16,11.10
2017,05,26,03,17,11.10
2017,05,26,03,18,11.10
2017,05,26,03,19,11.10
2017,05,26,03,20,11.20
2017,05,26,03,21,11.20
2017,05,26,03,22,11.20
2017,05,26,03,23,11.20
2017,05,26,03,24,11.30
2017,05,26,03,25,11.30
2017,05,26,03,26,11.30
2017,05,26,03,27,11.30
2017,05,26,03,28,11.30
2017,05,26,03,29,11.30
2017,05,26,03,30,11.30
2017,05,26,03,31,11.30
2017,05,26,03,32,11.40
2017,05,26,03,33,11.40
2017,05,26,03,34,11.40
2017,05,26,03,35,11.40
2017,05,26,03,36,11.40
2017,05,26,03,37,11.40
2017,05,26,03,38,11.40
2017,05,26,03,39,11.40
2017,05,26,03,40,11.40
2017,05,26,03,41,11.40
2017,05,26,03,42,11.40
2017,05,26,03,43,11.40
2017,05,26,03,44,11.30
2017,05,26,03,45,11.30
2017,05,26,03,46,11.30
2017,05,26,03,47,11.20
2017,05,26,03,48,11.20
2017,05,26,03,49,11.10
2017,05,26,03,50,11.00
2017,05,26,03,51,10.90
2017,05,26,03,52,10.80
2017,05,26,03,53,10.70
2017,05,26,03,54,10.60
2017,05,26,03,55,10.60
2017,05,26,03,56,10.50
2017,05,26,03,57,10.50
2017,05,26,03,58,10.40
2017,05,26,03,59,10.40
2017,05,26,04,00,10.40
2017,05,26,04,01,10.30
2017,05,26,04,02,10.30
2017,05,26,04,03,10.30
2017,05,26,04,04,10.30
2017,05,26,04,05,10.30
2017,05,26,04,06,10.30
2017,05,26,04,07,10.30
2017,05,26,04,08,10.30
2017,05,26,04,09,10.30
2017,05,26,04,10,10.30
2017,05,26,04,11,10.30
2017,05,26,04,12,10.30
2017,05,26,04,13,10.30
2017,05,26,04,14,10.30
2017,05,26,04,15,10.30
2017,05,26,04,16,10.30
2017,05,26,04,17,10.30
2017,05,26,04,18,10.30
2017,05,26,04,19,10.30
2017,05,26,04,20,10.30
2017,05,26,04,21,10.30
2017,05,26,04,22,10.30
2017,05,26,04,23,10.40
2017,05,26,04,24,10.40
2017,05,26,04,25,10.40
2017,05,26,04,26,10.40
2017,05,26,04,27,10.50
2017,05,26,04,28,10.50
2017,05,26,04,29,10.40
2017,05,26,04,30,10.40
2017,05,26,04,31,10.40
2017,05,26,04,32,10.40
2017,05,26,04,33,10.40
2017,05,26,04,34,10.40
2017,05,26,04,35,10.30
2017,05,26,04,36,10.30
2017,05,26,04,37,10.30
2017,05,26,04,38,10.30
2017,05,26,04,39,10.30
2017,05,26,04,40,10.30
2017,05,26,04,41,10.30
2017,05,26,04,42,10.30
2017,05,26,04,43,10.30
2017,05,26,04,44,10.30
2017,05,26,04,45,10.30
2017,05,26,04,46,10.30
2017,05,26,04,47,10.30
2017,05,26,04,48,10.30
2017,05,26,04,49,10.20
2017,05,26,04,50,10.20
2017,05,26,04,51,10.20
2017,05,26,04,52,10.20
2017,05,26,04,53,10.20
2017,05,26,04,54,10.20
2017,05,26,04,55,10.20
2017,05,26,04,56,10.10
2017,05,26,04,57,10.10
2017,05,26,04,58,10.10
2017,05,26,04,59,10.10
2017,05,26,05,00,10.10
2017,05,26,05,01,10.10
2017,05,26,05,02,10.10
2017,05,26,05,03,10.10
2017,05,26,05,04,10.10
2017,05,26,05,05,10.10
2017,05,26,05,06,10.00
2017,05,26,05,07,10.00
2017,05,26,05,08,10.00
2017,05,26,05,09,10.00
2017,05,26,05,10,10.00
2017,05,26,05,11,10.00
2017,05,26,05,12,10.00
2017,05,26,05,13,10.00
2017,05,26,05,14,10.00
2017,05,26,05,15,10.10
2017,05,26,05,16,10.10
2017,05,26,05,17,10.10
2017,05,26,05,18,10.10
2017,05,26,05,19,10.10
2017,05,26,05,20,10.10
2017,05,26,05,21,10.10
2017,05,26,05,22,10.10
2017,05,26,05,23,10.00
2017,05,26,05,24,10.00
2017,05,26,05,25,10.00
2017,05,26,05,26,10.00
2017,05,26,05,27,9.90
2017,05,26,05,28,9.90
2017,05,26,05,29,9.90
2017,05,26,05,30,9.90
2017,05,26,05,31,9.90
2017,05,26,05,32,9.80
2017,05,26,05,33,9.80
2017,05,26,05,34,9.80
2017,05,26,05,35,9.80
2017,05,26,05,36,9.80
2017,05,26,05,37,9.80
2017,05,26,05,38,9.80
2017,05,26,05,39,9.80
2017,05,26,05,40,9.80
2017,05,26,05,41,9.80
2017,05,26,05,42,9.80
2017,05,26,05,43,9.80
2017,05,26,05,44,9.80
2017,05,26,05,45,9.80
2017,05,26,05,46,9.80
2017,05,26,05,47,9.80
2017,05,26,05,48,9.80
2017,05,26,05,49,9.90
2017,05,26,05,50,9.90
2017,05,26,05,51,9.90
2017,05,26,05,52,9.90
2017,05,26,05,53,9.90
2017,05,26,05,54,9.90
2017,05,26,05,55,9.90
2017,05,26,05,56,9.90
2017,05,26,05,57,9.90
2017,05,26,05,58,9.90
2017,05,26,05,59,9.90
2017,05,26,06,00,9.90
2017,05,26,06,01,10.00
2017,05,26,06,02,10.00
2017,05,26,06,03,10.10
2017,05,26,06,04,10.10
2017,05,26,06,05,10.20
2017,05,26,06,06,10.20
2017,05,26,06,07,10.30
2017,05,26,06,08,10.30
2017,05,26,06,09,10.40
2017,05,26,06,10,10.40
2017,05,26,06,11,10.50
2017,05,26,06,12,10.50
2017,05,26,06,13,10.60
2017,05,26,06,14,10.60
2017,05,26,06,15,10.70
2017,05,26,06,16,10.70
2017,05,26,06,17,10.80
2017,05,26,06,18,10.80
2017,05,26,06,19,10.80
2017,05,26,06,20,10.90
2017,05,26,06,21,10.90
2017,05,26,06,22,10.90
2017,05,26,06,23,10.90
2017,05,26,06,24,10.90
2017,05,26,06,25,11.00
2017,05,26,06,26,11.00
2017,05,26,06,27,11.00
2017,05,26,06,28,11.10
2017,05,26,06,29,11.10
2017,05,26,06,30,11.10
2017,05,26,06,31,11.10
2017,05,26,06,32,11.20
2017,05,26,06,33,11.20
2017,05,26,06,34,11.30
2017,05,26,06,35,11.30
2017,05,26,06,36,11.40
2017,05,26,06,37,11.40
2017,05,26,06,38,11.40
2017,05,26,06,39,11.40
2017,05,26,06,40,11.50
2017,05,26,06,41,11.50
2017,05,26,06,42,11.60
2017,05,26,06,43,11.60
2017,05,26,06,44,11.60
2017,05,26,06,45,11.70
2017,05,26,06,46,11.70
2017,05,26,06,47,11.70
2017,05,26,06,48,11.80
2017,05,26,06,49,11.80
2017,05,26,06,50,11.80
2017,05,26,06,51,11.80
2017,05,26,06,52,11.80
2017,05,26,06,53,11.80
2017,05,26,06,54,11.90
2017,05,26,06,55,11.90
2017,05,26,06,56,11.90
2017,05,26,06,57,12.00
2017,05,26,06,58,12.10
2017,05,26,06,59,12.10
2017,05,26,07,00,12.10
2017,05,26,07,01,12.10
2017,05,26,07,02,12.20
2017,05,26,07,03,12.20
2017,05,26,07,04,12.20
2017,05,26,07,05,12.30
2017,05,26,07,06,12.40
2017,05,26,07,07,12.50
2017,05,26,07,08,12.60
2017,05,26,07,09,12.70
2017,05,26,07,10,12.70
2017,05,26,07,11,12.80
2017,05,26,07,12,12.90
2017,05,26,07,13,13.00
2017,05,26,07,14,13.00
2017,05,26,07,15,13.10
2017,05,26,07,16,13.20
2017,05,26,07,17,13.20
2017,05,26,07,18,13.20
2017,05,26,07,19,13.30
2017,05,26,07,20,13.30
2017,05,26,07,21,13.40
2017,05,26,07,22,13.40
2017,05,26,07,23,13.50
2017,05,26,07,24,13.50
2017,05,26,07,25,13.60
2017,05,26,07,26,13.60
2017,05,26,07,27,13.60
2017,05,26,07,28,13.70
2017,05,26,07,29,13.70
2017,05,26,07,30,13.70
2017,05,26,07,31,13.70
2017,05,26,07,32,13.70
2017,05,26,07,33,13.70
2017,05,26,07,34,13.80
2017,05,26,07,35,13.80
2017,05,26,07,36,13.90
2017,05,26,07,37,13.90
2017,05,26,07,38,14.00
2017,05,26,07,39,14.00
2017,05,26,07,40,14.10
2017,05,26,07,41,14.10
2017,05,26,07,42,14.20
2017,05,26,07,43,14.20
2017,05,26,07,44,14.30
2017,05,26,07,45,14.30
2017,05,26,07,46,14.40
2017,05,26,07,47,14.50
2017,05,26,07,48,14.50
2017,05,26,07,49,14.60
2017,05,26,07,50,14.60
2017,05,26,07,51,14.60
2017,05,26,07,52,14.70
2017,05,26,07,53,14.70
2017,05,26,07,54,14.70
2017,05,26,07,55,14.80
2017,05,26,07,56,14.80
2017,05,26,07,57,14.90
2017,05,26,07,58,15.00
2017,05,26,07,59,15.00
2017,05,26,08,00,15.10
2017,05,26,08,01,15.20
2017,05,26,08,02,15.20
2017,05,26,08,03,15.20
2017,05,26,08,04,15.20
2017,05,26,08,05,15.10
2017,05,26,08,06,15.10
2017,05,26,08,07,15.10
2017,05,26,08,08,15.10
2017,05,26,08,09,15.10
2017,05,26,08,10,15.10
2017,05,26,08,11,15.10
2017,05,26,08,12,15.20
2017,05,26,08,13,15.20
2017,05,26,08,14,15.20
2017,05,26,08,15,15.20
2017,05,26,08,16,15.20
2017,05,26,08,17,15.20
2017,05,26,08,18,15.30
2017,05,26,08,19,15.30
2017,05,26,08,20,15.30
2017,05,26,08,21,15.30
2017,05,26,08,22,15.30
2017,05,26,08,23,15.30
2017,05,26,08,24,15.40
2017,05,26,08,25,15.40
2017,05,26,08,26,15.40
2017,05,26,08,27,15.50
2017,05,26,08,28,15.50
2017,05,26,08,29,15.60
2017,05,26,08,30,15.60
2017,05,26,08,31,15.60
2017,05,26,08,32,15.60
2017,05,26,08,33,15.60
2017,05,26,08,34,15.50
2017,05,26,08,35,15.50
2017,05,26,08,36,15.40
2017,05,26,08,37,15.30
2017,05,26,08,38,15.20
2017,05,26,08,39,15.10
2017,05,26,08,40,15.00
2017,05,26,08,41,15.00
2017,05,26,08,42,15.00
2017,05,26,08,43,15.00
2017,05,26,08,44,15.00
2017,05,26,08,45,15.10
2017,05,26,08,46,15.10
2017,05,26,08,47,15.10
2017,05,26,08,48,15.20
2017,05,26,08,49,15.20
2017,05,26,08,50,15.20
2017,05,26,08,51,15.20
2017,05,26,08,52,15.20
2017,05,26,08,53,15.20
2017,05,26,08,54,15.30
2017,05,26,08,55,15.30
2017,05,26,08,56,15.30
2017,05,26,08,57,15.40
2017,05,26,08,58,15.40
2017,05,26,08,59,15.40
2017,05,26,09,00,15.50
2017,05,26,09,01,15.50
2017,05,26,09,02,15.60
2017,05,26,09,03,15.60
2017,05,26,09,04,15.70
2017,05,26,09,05,15.70
2017,05,26,09,06,15.80
2017,05,26,09,07,15.70
2017,05,26,09,08,15.70
2017,05,26,09,09,15.70
2017,05,26,09,10,15.80
2017,05,26,09,11,15.80
2017,05,26,09,12,15.80
2017,05,26,09,13,15.90
2017,05,26,09,14,15.90
2017,05,26,09,15,15.80
2017,05,26,09,16,15.80
2017,05,26,09,17,15.70
2017,05,26,09,18,15.70
2017,05,26,09,19,15.60
2017,05,26,09,20,15.60
2017,05,26,09,21,15.60
2017,05,26,09,22,15.60
2017,05,26,09,23,15.50
2017,05,26,09,24,15.50
2017,05,26,09,25,15.40
2017,05,26,09,26,15.40
2017,05,26,09,27,15.40
2017,05,26,09,28,15.40
2017,05,26,09,29,15.30
2017,05,26,09,30,15.20
2017,05,26,09,31,15.10
2017,05,26,09,32,15.00
2017,05,26,09,33,15.00
2017,05,26,09,34,14.90
2017,05,26,09,35,14.90
2017,05,26,09,36,14.90
2017,05,26,09,37,14.90
2017,05,26,09,38,14.90
2017,05,26,09,39,14.90
2017,05,26,09,40,14.80
2017,05,26,09,41,14.70
2017,05,26,09,42,14.70
2017,05,26,09,43,14.60
2017,05,26,09,44,14.60
2017,05,26,09,45,14.60
2017,05,26,09,46,14.70
2017,05,26,09,47,14.80
2017,05,26,09,48,14.80
2017,05,26,09,49,14.90
2017,05,26,09,50,15.00
2017,05,26,09,51,15.00
2017,05,26,09,52,14.90
2017,05,26,09,53,14.90
2017,05,26,09,54,14.80
2017,05,26,09,55,14.80
2017,05,26,09,56,14.80
2017,05,26,09,57,14.90
2017,05,26,09,58,14.90
2017,05,26,09,59,15.00
2017,05,26,10,00,15.10
2017,05,26,10,01,15.10
2017,05,26,10,02,15.10
2017,05,26,10,03,15.10
2017,05,26,10,04,15.10
2017,05,26,10,05,15.10
2017,05,26,10,06,15.10
2017,05,26,10,07,15.10
2017,05,26,10,08,15.10
2017,05,26,10,09,15.20
2017,05,26,10,10,15.20
2017,05,26,10,11,15.20
2017,05,26,10,12,15.30
2017,05,26,10,13,15.30
2017,05,26,10,14,15.30
2017,05,26,10,15,15.30
2017,05,26,10,16,15.30
2017,05,26,10,17,15.30
2017,05,26,10,18,15.30
2017,05,26,10,19,15.30
2017,05,26,10,20,15.20
2017,05,26,10,21,15.30
2017,05,26,10,22,15.30
2017,05,26,10,23,15.30
2017,05,26,10,24,15.20
2017,05,26,10,25,15.20
2017,05,26,10,26,15.20
2017,05,26,10,27,15.20
2017,05,26,10,28,15.20
2017,05,26,10,29,15.30
2017,05,26,10,30,15.30
2017,05,26,10,31,15.30
2017,05,26,10,32,15.30
2017,05,26,10,33,15.40
2017,05,26,10,34,15.40
2017,05,26,10,35,15.40
2017,05,26,10,36,15.40
2017,05,26,10,37,15.40
2017,05,26,10,38,15.40
2017,05,26,10,39,15.40
2017,05,26,10,40,15.40
2017,05,26,10,41,15.40
2017,05,26,10,42,15.40
2017,05,26,10,43,15.40
2017,05,26,10,44,15.50
2017,05,26,10,45,15.50
2017,05,26,10,46,15.50
2017,05,26,10,47,15.40
2017,05,26,10,48,15.40
2017,05,26,10,49,15.50
2017,05,26,10,50,15.50
2017,05,26,10,51,15.60
2017,05,26,10,52,15.60
2017,05,26,10,53,15.60
2017,05,26,10,54,15.60
2017,05,26,10,55,15.60
2017,05,26,10,56,15.60
2017,05,26,10,57,15.70
2017,05,26,10,58,15.70
2017,05,26,10,59,15.70
2017,05,26,11,00,15.70
2017,05,26,11,01,15.80
2017,05,26,11,02,15.90
2017,05,26,11,03,15.90
2017,05,26,11,04,16.00
2017,05,26,11,05,16.10
2017,05,26,11,06,16.10
2017,05,26,11,07,16.20
2017,05,26,11,08,16.20
2017,05,26,11,09,16.20
2017,05,26,11,10,16.30
2017,05,26,11,11,16.30
2017,05,26,11,12,16.30
2017,05,26,11,13,16.30
2017,05,26,11,14,16.30
2017,05,26,11,15,16.30
2017,05,26,11,16,16.30
2017,05,26,11,17,16.30
2017,05,26,11,18,16.30
2017,05,26,11,19,16.30
2017,05,26,11,20,16.30
2017,05,26,11,21,16.30
2017,05,26,11,22,16.30
2017,05,26,11,23,16.30
2017,05,26,11,24,16.20
2017,05,26,11,25,16.10
2017,05,26,11,26,16.10
2017,05,26,11,27,16.10
2017,05,26,11,28,16.10
2017,05,26,11,29,16.10
2017,05,26,11,30,16.20
2017,05,26,11,31,16.20
2017,05,26,11,32,16.20
2017,05,26,11,33,16.20
2017,05,26,11,34,16.20
2017,05,26,11,35,16.10
2017,05,26,11,36,16.10
2017,05,26,11,37,16.10
2017,05,26,11,38,16.10
2017,05,26,11,39,16.10
2017,05,26,11,40,16.00
2017,05,26,11,41,16.00
2017,05,26,11,42,15.90
2017,05,26,11,43,15.80
2017,05,26,11,44,15.80
2017,05,26,11,45,15.70
2017,05,26,11,46,15.60
2017,05,26,11,47,15.60
2017,05,26,11,48,15.60
2017,05,26,11,49,15.60
2017,05,26,11,50,15.60
2017,05,26,11,51,15.60
2017,05,26,11,52,15.70
2017,05,26,11,53,15.70
2017,05,26,11,54,15.70
2017,05,26,11,55,15.80
2017,05,26,11,56,15.90
2017,05,26,11,57,15.90
2017,05,26,11,58,16.00
2017,05,26,11,59,16.00
2017,05,26,12,00,16.10
2017,05,26,12,01,16.10
2017,05,26,12,02,16.10
2017,05,26,12,03,16.20
2017,05,26,12,04,16.20
2017,05,26,12,05,16.30
2017,05,26,12,06,16.30
2017,05,26,12,07,16.30
2017,05,26,12,08,16.20
2017,05,26,12,09,16.20
2017,05,26,12,10,16.10
2017,05,26,12,11,16.00
2017,05,26,12,12,16.00
2017,05,26,12,13,15.90
2017,05,26,12,14,15.80
2017,05,26,12,15,15.80
2017,05,26,12,16,15.70
2017,05,26,12,17,15.60
2017,05,26,12,18,15.50
2017,05,26,12,19,15.50
2017,05,26,12,20,15.50
2017,05,26,12,21,15.50
2017,05,26,12,22,15.50
2017,05,26,12,23,15.60
2017,05,26,12,24,15.60
2017,05,26,12,25,15.60
2017,05,26,12,26,15.60
2017,05,26,12,27,15.60
2017,05,26,12,28,15.60
2017,05,26,12,29,15.60
2017,05,26,12,30,15.50
2017,05,26,12,31,15.40
2017,05,26,12,32,15.40
2017,05,26,12,33,15.40
2017,05,26,12,34,15.40
2017,05,26,12,35,15.40
2017,05,26,12,36,15.40
2017,05,26,12,37,15.40
2017,05,26,12,38,15.40
2017,05,26,12,39,15.50
2017,05,26,12,40,15.50
2017,05,26,12,41,15.60
2017,05,26,12,42,15.60
2017,05,26,12,43,15.60
2017,05,26,12,44,15.60
2017,05,26,12,45,15.70
2017,05,26,12,46,15.70
2017,05,26,12,47,15.70
2017,05,26,12,48,15.70
2017,05,26,12,49,15.80
2017,05,26,12,50,15.80
2017,05,26,12,51,15.70
2017,05,26,12,52,15.70
2017,05,26,12,53,15.80
2017,05,26,12,54,15.80
2017,05,26,12,55,15.70
2017,05,26,12,56,15.70
2017,05,26,12,57,15.70
2017,05,26,12,58,15.70
2017,05,26,12,59,15.70
2017,05,26,13,00,15.70
2017,05,26,13,01,15.60
2017,05,26,13,02,15.60
2017,05,26,13,03,15.60
2017,05,26,13,04,15.60
2017,05,26,13,05,15.70
2017,05,26,13,06,15.70
2017,05,26,13,07,15.80
2017,05,26,13,08,15.80
2017,05,26,13,09,15.80
2017,05,26,13,10,15.90
2017,05,26,13,11,15.90
2017,05,26,13,12,16.00
2017,05,26,13,13,16.00
2017,05,26,13,14,16.10
2017,05,26,13,15,16.10
2017,05,26,13,16,16.20
2017,05,26,13,17,16.20
2017,05,26,13,18,16.20
2017,05,26,13,19,16.20
2017,05,26,13,20,16.20
2017,05,26,13,21,16.20
2017,05,26,13,22,16.20
2017,05,26,13,23,16.20
2017,05,26,13,24,16.20
2017,05,26,13,25,16.20
2017,05,26,13,26,16.20
2017,05,26,13,27,16.30
2017,05,26,13,28,16.30
2017,05,26,13,29,16.30
2017,05,26,13,30,16.30
2017,05,26,13,31,16.40
2017,05,26,13,32,16.40
2017,05,26,13,33,16.50
2017,05,26,13,34,16.50
2017,05,26,13,35,16.40
2017,05,26,13,36,16.30
2017,05,26,13,37,16.30
2017,05,26,13,38,16.30
2017,05,26,13,39,16.30
2017,05,26,13,40,16.30
2017,05,26,13,41,16.30
2017,05,26,13,42,16.30
2017,05,26,13,43,16.30
2017,05,26,13,44,16.30
2017,05,26,13,45,16.30
2017,05,26,13,46,16.30
2017,05,26,13,47,16.30
2017,05,26,13,48,16.40
2017,05,26,13,49,16.40
2017,05,26,13,50,16.50
2017,05,26,13,51,16.50
2017,05,26,13,52,16.60
2017,05,26,13,53,16.60
2017,05,26,13,54,16.70
2017,05,26,13,55,16.70
2017,05,26,13,56,16.70
2017,05,26,13,57,16.70
2017,05,26,13,58,16.60
2017,05,26,13,59,16.60
2017,05,26,14,00,16.60
2017,05,26,14,01,16.60
2017,05,26,14,02,16.60
2017,05,26,14,03,16.70
2017,05,26,14,04,16.70
2017,05,26,14,05,16.80
2017,05,26,14,06,16.80
2017,05,26,14,07,16.80
2017,05,26,14,08,16.90
2017,05,26,14,09,17.00
2017,05,26,14,10,17.00
2017,05,26,14,11,17.10
2017,05,26,14,12,17.10
2017,05,26,14,13,17.20
2017,05,26,14,14,17.30
2017,05,26,14,15,17.30
2017,05,26,14,16,17.20
2017,05,26,14,17,17.20
2017,05,26,14,18,17.20
2017,05,26,14,19,17.20
2017,05,26,14,20,17.20
2017,05,26,14,21,17.30
2017,05,26,14,22,17.30
2017,05,26,14,23,17.40
2017,05,26,14,24,17.50
2017,05,26,14,25,17.50
2017,05,26,14,26,17.60
2017,05,26,14,27,17.60
2017,05,26,14,28,17.60
2017,05,26,14,29,17.60
2017,05,26,14,30,17.50
2017,05,26,14,31,17.50
2017,05,26,14,32,17.50
2017,05,26,14,33,17.40
2017,05,26,14,34,17.40
2017,05,26,14,35,17.50
2017,05,26,14,36,17.40
2017,05,26,14,37,17.40
2017,05,26,14,38,17.40
2017,05,26,14,39,17.40
2017,05,26,14,40,17.40
2017,05,26,14,41,17.40
2017,05,26,14,42,17.40
2017,05,26,14,43,17.40
2017,05,26,14,44,17.50
2017,05,26,14,45,17.50
2017,05,26,14,46,17.60
2017,05,26,14,47,17.60
2017,05,26,14,48,17.70
2017,05,26,14,49,17.70
2017,05,26,14,50,17.80
2017,05,26,14,51,17.80
2017,05,26,14,52,17.80
2017,05,26,14,53,17.90
2017,05,26,14,54,17.90
2017,05,26,14,55,17.90
2017,05,26,14,56,18.00
2017,05,26,14,57,18.10
2017,05,26,14,58,18.10
2017,05,26,14,59,18.10
2017,05,26,15,00,18.20
2017,05,26,15,01,18.20
2017,05,26,15,02,18.20
2017,05,26,15,03,18.20
2017,05,26,15,04,18.20
2017,05,26,15,05,18.20
2017,05,26,15,06,18.20
2017,05,26,15,07,18.20
2017,05,26,15,08,18.20
2017,05,26,15,09,18.20
2017,05,26,15,10,18.20
2017,05,26,15,11,18.20
2017,05,26,15,12,18.20
2017,05,26,15,13,18.10
2017,05,26,15,14,18.10
2017,05,26,15,15,18.10
2017,05,26,15,16,18.00
2017,05,26,15,17,18.10
2017,05,26,15,18,18.10
2017,05,26,15,19,18.10
2017,05,26,15,20,18.20
2017,05,26,15,21,18.20
2017,05,26,15,22,18.20
2017,05,26,15,23,18.10
2017,05,26,15,24,18.10
2017,05,26,15,25,18.10
2017,05,26,15,26,18.10
2017,05,26,15,27,18.10
2017,05,26,15,28,18.00
2017,05,26,15,29,18.00
2017,05,26,15,30,17.90
2017,05,26,15,31,17.90
2017,05,26,15,32,17.90
2017,05,26,15,33,17.90
2017,05,26,15,34,17.90
2017,05,26,15,35,17.80
2017,05,26,15,36,17.80
2017,05,26,15,37,17.80
2017,05,26,15,38,17.90
2017,05,26,15,39,17.90
2017,05,26,15,40,17.90
2017,05,26,15,41,17.90
2017,05,26,15,42,17.80
2017,05,26,15,43,17.80
2017,05,26,15,44,17.80
2017,05,26,15,45,17.80
2017,05,26,15,46,17.80
2017,05,26,15,47,17.80
2017,05,26,15,48,17.90
2017,05,26,15,49,17.90
2017,05,26,15,50,17.90
2017,05,26,15,51,17.90
2017,05,26,15,52,17.90
2017,05,26,15,53,18.00
2017,05,26,15,54,18.00
2017,05,26,15,55,18.10
2017,05,26,15,56,18.20
2017,05,26,15,57,18.20
2017,05,26,15,58,18.30
2017,05,26,15,59,18.20
2017,05,26,16,00,18.20
2017,05,26,16,01,18.20
2017,05,26,16,02,18.10
2017,05,26,16,03,18.10
2017,05,26,16,04,18.10
2017,05,26,16,05,18.10
2017,05,26,16,06,18.10
2017,05,26,16,07,18.10
2017,05,26,16,08,18.00
2017,05,26,16,09,18.00
2017,05,26,16,10,17.90
2017,05,26,16,11,17.90
2017,05,26,16,12,17.90
2017,05,26,16,13,17.90
2017,05,26,16,14,17.90
2017,05,26,16,15,17.90
2017,05,26,16,16,17.90
2017,05,26,16,17,18.00
2017,05,26,16,18,18.10
2017,05,26,16,19,18.00
2017,05,26,16,20,18.00
2017,05,26,16,21,18.00
2017,05,26,16,22,18.00
2017,05,26,16,23,18.00
2017,05,26,16,24,18.00
2017,05,26,16,25,18.00
2017,05,26,16,26,18.00
2017,05,26,16,27,18.00
2017,05,26,16,28,18.00
2017,05,26,16,29,18.10
2017,05,26,16,30,18.10
2017,05,26,16,31,18.10
2017,05,26,16,32,18.20
2017,05,26,16,33,18.30
2017,05,26,16,34,18.30
2017,05,26,16,35,18.30
2017,05,26,16,36,18.40
2017,05,26,16,37,18.40
2017,05,26,16,38,18.40
2017,05,26,16,39,18.50
2017,05,26,16,40,18.40
2017,05,26,16,41,18.40
2017,05,26,16,42,18.40
2017,05,26,16,43,18.40
2017,05,26,16,44,18.40
2017,05,26,16,45,18.40
2017,05,26,16,46,18.40
2017,05,26,16,47,18.40
2017,05,26,16,48,18.40
2017,05,26,16,49,18.40
2017,05,26,16,50,18.40
2017,05,26,16,51,18.40
2017,05,26,16,52,18.40
2017,05,26,16,53,18.30
2017,05,26,16,54,18.30
2017,05,26,16,55,18.30
2017,05,26,16,56,18.20
2017,05,26,16,57,18.30
2017,05,26,16,58,18.30
2017,05,26,16,59,18.30
2017,05,26,17,00,18.30
2017,05,26,17,01,18.30
2017,05,26,17,02,18.30
2017,05,26,17,03,18.30
2017,05,26,17,04,18.30
2017,05,26,17,05,18.30
2017,05,26,17,06,18.30
2017,05,26,17,07,18.30
2017,05,26,17,08,18.30
2017,05,26,17,09,18.30
2017,05,26,17,10,18.40
2017,05,26,17,11,18.40
2017,05,26,17,12,18.40
2017,05,26,17,13,18.50
2017,05,26,17,14,18.50
2017,05,26,17,15,18.60
2017,05,26,17,16,18.60
2017,05,26,17,17,18.60
2017,05,26,17,18,18.70
2017,05,26,17,19,18.80
2017,05,26,17,20,18.90